Regional Weather Roundup
Issued by NWS Pendleton, OR

Home | Current Version | Previous Version | Text Only | Print | Product List | Glossary On
Versions: 1 2 3 4 5 6 7 8 9 10 11 12 13 14 15 16 17 18 19 20 21 22 23 24 25 26 27 28 29 30 31 32 33 34 35 36 37 38 39 40 41 42 43 44 45 46 47 48 49 50
000
ASUS46 KPDT 241625
RWRPDT
PENDLETON REGIONAL WEATHER ROUNDUP
NATIONAL WEATHER SERVICE PENDLETON OREGON
900 AM PDT THU JUL 24 2014

NOTE: FAIR INDICATES FEW OR NO CLOUDS BELOW 12,000 FEET WITH NO
SIGNIFICANT WEATHER AND/OR OBSTRUCTIONS TO VISIBILITY.

# INDICATES UNOFFICIAL STATION AND DATA

WAZ520-241710-
EAST SLOPES OF WASHINGTON CASCADES

CITY            SKY/WX      TMP DP  RH  WIND    PRES   REMARKS
#BUMPING DAM    N/A         48  N/A N/A S1      N/A
#CLE ELUM HS    N/A         54  48  80  SE1     30.06R
#CLE ELUM LAKE  N/A         52  47  83  CALM    30.05R
#CLIFFDEL 2NW   N/A         52  44  74  NW1     N/A
#GLENWOOD       N/A         56  52  86  S6      30.14R
#MANASTASH CYN  N/A         55  43  64  CALM    30.08R
#NELSON         N/A         54  49  83  CALM    30.08R
#NELSON 3SW     N/A         51  47  86  CALM    30.27R
#RONALD 2NW     N/A         54  48  80  W3      29.98R
#TROUT LAKE 1NE N/A         53  50  89  W5      30.18R
$$

WAZ521-241710-
SIMCOE HIGHLANDS

CITY            SKY/WX      TMP DP  RH  WIND    PRES   REMARKS
#BICKLETON HS   N/A         52  39  61  W10G26  30.18R
#CENTERVILLE 1SWN/A         56  47  72  W14     30.15
#GOLDENDALE 1NE N/A         56  45  66  SW3     N/A
#GOLDENDALE 1S  N/A         55  48  77  W3      30.16R
#GOLDENDALE 5WNWN/A         55  48  77  SW7     30.16R
#GOODNOE HILLS  N/A         62  49  62  W15     30.12R
#LYLE 6NE       N/A         54  51  90  CALM    30.16R
$$

WAZ026-241710-
KITTITAS VALLEY

CITY            SKY/WX      TMP DP  RH  WIND    PRES   REMARKS
ELLENSBURG AP   MOCLDY      57  46  67  CALM    30.11R
#ELLENSBURG CWU N/A         55  45  69  SE2     30.04R
#ELLENSBURG 3NE N/A         53  48  83  CALM    30.11R
#ELLENSBURG 1E  N/A         54  45  71  CALM    N/A
#KITTITAS 3S    N/A         57  48  72  CALM    30.06S
#THORP 6N       N/A         53  47  80  N6      30.09R
$$

WAZ027-241710-
YAKIMA VALLEY

CITY            SKY/WX      TMP DP  RH  WIND    PRES   REMARKS
YAKIMA AIRPORT  PTCLDY      63  47  56  S17G24  30.12R
YAKIMA-VAGABOND MOCLDY      60  46  60  S20G30  30.12R
#COWICHE 1N     N/A         57  48  72  N1      30.23S
#DONALD 2NE     N/A         67  43  42  SW1     30.30S
#GRANDVIEW      N/A         65  45  48  W3      30.14R
#MABTON         N/A         65  47  52  SW8     30.14R
#MOXEE 2E       N/A         64  34  33  SW8     30.03F
#NACHES 2SW     N/A         58  50  75  CALM    30.08S
#OUTLOOK DOT    N/A         N/A N/A N/A S12     N/A
#SELAH 8E       N/A         59  45  60  S17G28  N/A
#TERRACE HTS    N/A         59  48  67  W2      30.06S
#TOPPENISH      N/A         65  47  52  SW7     30.02S
#WAPATO 4NE     N/A         67  43  42  SW1     30.30S
#W YAKIMA       N/A         63  50  62  S2      30.08S
#WHITE SWAN 5E  N/A         64  48  56  SW22G32 30.10R
#WILEY CITY 3W  N/A         61  46  58  SW9     30.11S
$$

WAZ028-241710-
LOWER COLUMBIA BASIN...WASHINGTON

CITY            SKY/WX      TMP DP  RH  WIND    PRES   REMARKS
HANFORD         MOSUNNY     66  42  42  SW17    30.11S
PASCO           SUNNY       66  46  48  SW23G32 30.16R
PROSSER AWOS    N/A         66  46  48  S17     30.17S
RICHLAND AWOS   SUNNY       66  45  47  SW25G31 30.14R
#BASIN CITY 5SW N/A         63  50  62  S6      30.14R
#BENTON CITY    N/A         62  48  60  SW13G24 30.04R
#CONNELL 5N     N/A         61  48  62  SW12    30.11R
#CONNELL 5NW    N/A         61  50  67  SW10    30.07R
#ELTOPIA 6NW    N/A         61  50  67  S12     29.11R
#KENNEWICK 3S   N/A         62  47  58  S13G24  30.14R
#PASCO-BROADMOORN/A         66  49  54  S7      30.03S
#PATERSON       N/A         63  48  58  SW12    30.15S
#PROSSER        N/A         61  46  58  S14     30.14R
#SAGEMOOR 2W    N/A         62  50  65  SW12    29.98R
#TOUCHET 2S     N/A         63  47  56  SW10    30.15F
#WEST PASCO     N/A         66  48  52  W8      30.17R
$$

WAZ029-241710-
FOOTHILLS OF THE BLUES...WASHINGTON

CITY            SKY/WX      TMP DP  RH  WIND    PRES   REMARKS
WALLA WALLA AP  MOSUNNY     63  42  46  S14     30.21R
#COLLEGE PLACE  N/A         68  44  42  S2      30.19S
#DAYTON SCHOOL  N/A         59  39  47  SW7     30.16R
#LOWDEN 2SE     N/A         65  48  54  W9      30.15R
#PLEASANT VIEW 1N/A         60  46  60  SW21G29 30.15S
#PRESCOTT       N/A         61  47  60  SW3     30.15R
#SUDBURY        N/A         66  N/A N/A CALM    N/A
#WHITMAN COLLEGEN/A         62  46  56  S7      30.22R
#WAITSBURG 8N   N/A         60  33  36  S20     30.03S
#WALLA WALLA 5E N/A         63  44  50  S15     N/A
#WHITMAN MISSIONN/A         64  48  56  SW9     30.18S
$$

WAZ030-241710-
BLUE MOUNTAINS...WASHINGTON

CITY            SKY/WX      TMP DP  RH  WIND    PRES   REMARKS
$$

ORZ009-041-WAZ024-241710-
COLUMBIA RIVER GORGE

CITY            SKY/WX      TMP DP  RH  WIND    PRES   REMARKS
HOOD RIVER AP   MOCLDY      59  52  78  W3      30.21R
THE DALLES AP   CLOUDY      61  48  62  N5      30.20R
#ARLINGTON AIRPON/A         62  48  60  W12     25.01
#ARLINGTON HS   N/A         65  47  52  CALM    30.09S
#CELILO DOT     N/A         63  45  52  S9      N/A
#MOSIER 1S      N/A         59  49  69  NW10    30.24S
#MURDOCK        N/A         62  54  75  NW8     30.21R
#RUFUS DOT      N/A         63  46  54  W8      N/A

$$

ORZ510-241710-
NORTH CENTRAL OREGON

CITY            SKY/WX      TMP DP  RH  WIND    PRES   REMARKS
#CHENOWITH 1W   N/A         54  48  80  NW7     N/A
#COW CYN RST AREN/A         53  42  66  S12     N/A
#DUFUR 9E       N/A         56  46  69  SW15G24 30.22R
#GRASS VALLEY 1SN/A         57  45  64  SW14    30.20R
#KENT DOT       N/A         57  36  45  SW20    N/A
#MAUPIN SCHOOL  N/A         62  47  58  S5      30.23S
#MORO SCHOOL    N/A         58  50  75  SW7     30.20R
#SHANIKO 5WSW   N/A         52  35  52  S22     N/A
#SHANIKO 4NW    N/A         50  40  68  SW5     30.22R
#TYGH VALLEY 2NEN/A         60  47  62  SW10    30.17S
#WAPANITIA AIRPON/A         59  45  60  SW12    30.19S
#WASCO DOT      N/A         60  42  51  W6      N/A
#WASCO 5NE      N/A         59  46  62  W3      30.18R
$$

ORZ511-241710-
CENTRAL OREGON

CITY            SKY/WX      TMP DP  RH  WIND    PRES   REMARKS
BEND AIRPORT    SUNNY       55  36  49  CALM    30.28R
MADRAS AIRPORT  PTCLDY      57  41  55  SW12    30.27R
REDMOND AIRPORT SUNNY       54  37  52  CALM    30.26S
#BEND 6E        N/A         56  34  43  CALM    30.17R
#BEND 1SW       N/A         51  37  59  SW3     N/A
#BEND-AWBREY    N/A         54  40  59  NE3     30.21R
#BEND-KIM LN    N/A         53  42  66  SW1     30.23S
#CROOKED RVR RANN/A         57  42  57  CALM    30.22R
#CULVER         N/A         56  41  57  S5      30.22S
#LAKE BILLY CHINN/A         58  19  22  W5      30.26R
#POWELL BUTTE 3EN/A         52  40  63  SE3     N/A
#POWELL BUTTE   N/A         65  46  50  CALM    29.89R
#PRINEVILLE 3N  N/A         54  43  66  CALM    30.19F


ORZ509-241710-
EAST SLOPES OF OREGON CASCADES

CITY            SKY/WX      TMP DP  RH  WIND    PRES   REMARKS
#BLUE BOX PASS  N/A         45  -6  11  NW2     N/A
#BLACK BUTTE RNCN/A         53  43  69  CALM    30.23R
#CAMP SHERMAN   N/A         55  41  59  CALM    30.26S
#LA PINE DOT    N/A         54  32  43  S2      N/A
#LA PINE 4NW    N/A         48  38  68  CALM    30.28F
#LAVA BUTTE DOT N/A         48  35  60  SW3     N/A
#SISTERS AIRPOR N/A         56  46  69  N2      30.23S
#SISTERS ODOT   N/A         57  N/A N/A E1      N/A
#SISTERS 3N     N/A         57  32  38  W3      30.28S
#SUNRIVER       N/A         51  41  68  S3      30.11S
#SUNRIVER AP    N/A         48  40  74  S5      30.20S
#SUTTLE LK DOT  N/A         49  43  80  W32G53  N/A    WCI 40
#TUMALO 3W      N/A         54  37  52  CALM    30.11S
#WANOGA BUTTE D N/A         47  34  60  W3      N/A

$$

ORZ044-241710-
LOWER COLUMBIA BASIN...OREGON

CITY            SKY/WX      TMP DP  RH  WIND    PRES   REMARKS
HERMISTON       SUNNY       66  43  43  SW15    30.18S
#BOARDMAN SCHOOLN/A         64  45  50  W5      30.16S
#BOARDMAN 3W    N/A         68  49  51  S6      29.91S
#BOARDMAN 8SW   N/A         64  48  56  SW13    30.17S
#IONE SCHOOL    N/A         63  44  50  S9      30.17S
#IRRIGON 4NW    N/A         65  48  54  S9      N/A
#UMATILLA SCHOOLN/A         67  51  56  SW5     30.19F
#UMATILLA       N/A         66  45  47  SW8     30.15S
$$

ORZ507-241710-
NORTHERN FOOTHILLS OF THE BLUES

CITY            SKY/WX      TMP DP  RH  WIND    PRES   REMARKS
PENDLETON AIRPT MOCLDY      63  41  44  W15     30.19F
#ADAMS 3WNW     N/A         59  45  60  SW7     30.17R
#ATHENA         N/A         60  45  58  W3      30.18S
#HELIX SCHOOL   N/A         58  44  60  W9      30.15S
#HELIX 3N       N/A         58  44  60  SW20G28 30.15S
#HOLDMAN 5SE    N/A         62  44  52  SW14    30.18F
#HOLDMAN 6E     N/A         61  44  53  NW7     29.97S
#M-F FERNDALE   N/A         61  47  60  CALM    30.19S
#M-F GROVE ELEM N/A         62  40  44  SW6     30.19R
#M-FREEWATER 5SEN/A         60  45  58  CALM    30.20R
#PDT AQUATIC CTRN/A         62  47  58  W8      30.12S
#PENDLETON DNTN N/A         62  45  54  W2      30.16S
#PENDLETON 5NE  N/A         61  48  62  CALM    30.16S
#PDT SUNRIDGE   N/A         63  45  52  W1      30.21S
#PENDLETON 7NW  N/A         66  47  50  W12     30.12R
#PILOT ROCK     N/A         64  40  41  S1      30.21S
#TUTUILLA       N/A         64  47  54  S5      30.11S
#UMAPINE 2E     N/A         65  49  56  SW3     30.16F
#WESTON SCHOOL  N/A         58  40  51  NW12    30.18R

$$

ORZ508-241710-
SOUTHERN FOOTHILLS OF THE BLUES

CITY            SKY/WX      TMP DP  RH  WIND    PRES   REMARKS
#AJAX           N/A         N/A N/A N/A SW12    30.22R
#CONDON SCHOOL  N/A         54  42  64  SW14    30.17R
#CONDON 5W      N/A         52  40  63  S18G31  30.18S
#HEPPNER EOC    N/A         60  41  49  W7      30.12R
#HEPPNER 4NE    N/A         58  40  51  W9      30.16S
#LEXINGTON 2SE  N/A         64  42  45  SW9     30.16S
#MIKKALO        N/A         61  42  50  W9      30.18S
#RUGGS 5NE      N/A         58  39  49  SW8     30.40R
#RUGGS 2SW      N/A         58  40  51  W13     30.22R

$$

ORZ502-503-241710-
BLUE MOUNTAINS

CITY            SKY/WX      TMP DP  RH  WIND    PRES   REMARKS
MEACHAM         MOSUNNY     54  38  55  VRB5    30.23R
#BATTLE MTN DOT N/A         48  44  86  S9      N/A
#HARDMAN 10S    N/A         47  38  71  S7      30.26S
#HEPPNER 15SE   N/A         52  40  63  E2      30.15R
#LADD CYN SMT   N/A         54  32  43  N7      N/A
#LADD CREEK ODOTN/A         56  40  55  NE6     N/A
#LONG CREEK HS  N/A         52  40  63  N2      30.21R
#PIKES PEAK     N/A         49  40  71  SW16G26 27.99S WCI 43
#TOLLGATE 9W    N/A         49  41  74  S3      N/A
#TROY SCHOOL    N/A         65  44  46  SE8     29.98S
#UKIAH          N/A         53  42  66  SW1     30.22S
#WESTON 4E      N/A         53  42  66  SW7     30.10R
$$

ORZ505-241710-
JOHN DAY BASIN

CITY            SKY/WX      TMP DP  RH  WIND    PRES   REMARKS
JOHN DAY        SUNNY       57  34  42  W14     30.27R
#JOHN DAY KJDY  N/A         64  34  33  CALM    30.17F
#MONUMENT HS    N/A         58  40  51  CALM    30.09S
#MT. VERNON 5SE N/A         52  36  54  NW2     30.23R
#WINLOCK        N/A         60  44  55  N6      30.31S
$$

ORZ506-241710-
OCHOCO AND JOHN DAY HIGHLANDS

CITY            SKY/WX      TMP DP  RH  WIND    PRES   REMARKS
#BUCK CREEK DOT N/A         51  42  71  W5      N/A
#HORSE RIDGE DO N/A         53  34  48  CALM    N/A
#KEYES SMT DOT  N/A         50  36  58  NW8     N/A
#PAULINA SCHOOL N/A         N/A N/A N/A CALM    30.24R
#PINE MTN OBS   N/A         43  34  70  CALM    N/A
#PRAIRIE CITY   N/A         56  38  51  W3      30.25F
#SENECA 9NW     N/A         46  36  68  S2      30.11R
$$

ORZ049-241710-
GRANDE RONDE VALLEY

CITY            SKY/WX      TMP DP  RH  WIND    PRES   REMARKS
LA GRANDE       SUNNY       61  34  36  W10     30.23R
#COVE           N/A         57  43  59  N1      30.15R
#COVE SCHOOL    N/A         58  40  51  CALM    30.20R
#COVE 6NW       N/A         57  40  53  CALM    30.20R
#ELGIN 3N       N/A         55  38  53  S6      29.94R
#ELGIN 1E       N/A         57  41  55  SW1     N/A
#IMBLER SCHOOL  N/A         57  45  64  CALM    30.18R
#ISLAND CITY 4N N/A         59  42  53  S7      30.10R
#LADD CYN DOT   N/A         57  38  49  E2      N/A
#UNION 1S       N/A         58  39  49  CALM    30.06R
$$

ORZ050-241710-
WALLOWA COUNTY

CITY            SKY/WX      TMP DP  RH  WIND    PRES   REMARKS
#ENTERPRISE HS  N/A         54  40  59  CALM    30.21R
#IMNAHA SCHOOL  N/A         61  34  36  CALM    30.11
#IMNAHA 10S     N/A         60  38  44  NE2     30.19S
#JOSEPH 3N      N/A         53  40  61  S1      30.22S
#JOSEPH 3W      N/A         50  39  66  CALM    30.05R
#LOSTINE        N/A         56  37  49  E3      29.90F
#MT HOWARD 8000 N/A         34  33  96  NW1     30.26S
#PROMISE 1S     N/A         51  40  66  E5      30.26F
#SHEEP RDG 7000 N/A         38  34  85  CALM    30.03R
#WALLOWA SCHOOL N/A         57  36  45  NW1     31.02R



$$



USA.gov is the U.S. government's official web portal to all federal, state and local government web resources and services.